This is the latest recevied weather packets stored in our database for station/object W7MB. If no packets are shown the sender has not sent any weather packets the latest 10 day(s).
| Time | Temp. | Humidity | Pressure | Rain* | Wind** | Luminosity | Snow |
|---|---|---|---|---|---|---|---|
| 1777145403 | 15.56° C | 31% | 1010.3 hPa | 0 mm | - | - | - |
| 1777145043 | 15.56° C | 35% | 1010.4 hPa | 0 mm | - | - | - |
| 1777144683 | 15.56° C | 31% | 1010.4 hPa | 0 mm | - | - | - |
| 1777144323 | 15.56° C | 41% | 1010.5 hPa | 0 mm | - | - | - |
| 1777143963 | 15° C | 37% | 1010.6 hPa | 0 mm | - | - | - |
| 1777143605 | 15° C | 31% | 1010.6 hPa | 0 mm | - | - | - |
| 1777143243 | 15° C | 33% | 1010.7 hPa | 0 mm | - | - | - |
| 1777142883 | 15° C | 36% | 1010.8 hPa | 0 mm | - | - | - |
| 1777142524 | 15° C | 37% | 1010.8 hPa | 0 mm | - | - | - |
| 1777142163 | 15° C | 43% | 1010.9 hPa | 0 mm | - | - | - |
| 1777141803 | 14.44° C | 44% | 1010.9 hPa | 0 mm | - | - | - |
| 1777141443 | 13.89° C | 40% | 1011 hPa | 0 mm | - | - | - |
| 1777141083 | 13.33° C | 34% | 1010.9 hPa | 0 mm | - | - | - |
| 1777140723 | 13.89° C | 38% | 1011 hPa | 0 mm | - | - | - |
| 1777140363 | 13.89° C | 37% | 1011.1 hPa | 0 mm | - | - | - |
| 1777140004 | 13.89° C | 40% | 1011 hPa | 0 mm | - | - | - |
| 1777139643 | 13.89° C | 41% | 1011 hPa | 0 mm | - | - | - |
| 1777139284 | 13.89° C | 51% | 1011.1 hPa | 0 mm | - | - | - |
| 1777138923 | 12.78° C | 51% | 1011 hPa | 0 mm | - | - | - |
| 1777138563 | 12.22° C | 54% | 1011.1 hPa | 0 mm | - | - | - |
| 1777138204 | 11.67° C | 54% | 1011.2 hPa | 0 mm | - | - | - |
| 1777137844 | 11.11° C | 48% | 1011.2 hPa | 0 mm | - | - | - |
| 1777137483 | 10.56° C | 52% | 1011.2 hPa | 0 mm | - | - | - |
| 1777137123 | 10° C | 61% | 1011.4 hPa | 0 mm | - | - | - |
| 1777136763 | 8.89° C | 58% | 1011.4 hPa | 0 mm | - | - | - |
* Rain latest hour (hover to see other rain measurements)
** Current wind speed in m/s (hover to see current wind gust speed)